Miscellaneous Local Product
Issued by NWS North Platte, NE

Home | Current Version | Previous Version | Text Only | Print | Product List | Glossary On
Versions: 1 2 3 4 5 6 7 8 9 10 11 12 13 14 15 16 17 18 19 20 21 22 23 24 25 26 27 28 29 30 31 32 33 34 35 36 37 38 39 40 41 42 43 44 45 46 47 48 49 50
000
AXUS43 KLBF 271710
MISLBF


WESTERN AND NORTH CENTRAL NEBRASKA HOURLY WEATHER ROUNDUP
NATIONAL WEATHER SERVICE NORTH PLATTE NE
1100 AM CST FRI FEB 27 2015

***STATIONS NOT REPORTING VARIABLES SUCH AS SKY/WEATHER OR
PRESSURE ARE PROVIDED BY THE NEBRASKA DEPARTMENT OF
ROADS...RAWS...AND APRS NETWORKS...AND ARE NOT UNDER
NATIONAL WEATHER SERVICE QUALITY CONTROL***

...OBSERVATIONS IN AND NEAR THE EASTERN PANHANDLE OF NEBRASKA...

CITY           SKY/WX    TMP DP  RH WIND       PRES   REMARKS
PINE RIDGE     SUNNY     17   6  62 S18G26    30.19F WCI   1
CHADRON        PTSUNNY   17   7  64 S21       30.18F WCI   0
ALLIANCE       CLOUDY    13   6  74 S17       30.17F WCI  -4
SIDNEY         LGT SNOW  12   6  77 S16       30.16F WCI  -5
WHITECLAY        N/A     15   4  62 S15         N/A  WCI   0
CRESCENT LAKE    N/A     13   4  65 S13         N/A  WCI  -1
LISCO            N/A     17   5  60 E14         N/A  WCI   3
BIG SPRINGS      N/A     15   8  73 SE12        N/A  WCI   2
LEWELLEN         N/A     11   2  67 S14         N/A  WCI  -5
$$

...OBSERVATIONS IN NORTH CENTRAL NEBRASKA...

CITY           SKY/WX    TMP DP  RH WIND       PRES   REMARKS
VALENTINE      SUNNY     15   0  51 S12G18    30.35F WCI   2
THEDFORD       SUNNY     15  -1  49 S10G16    30.34F WCI   2
AINSWORTH      SUNNY     14   0  54 S12       30.36F WCI   0
O`NEILL        SUNNY     14   2  57 SW8       30.46F WCI   3
ORD            SUNNY     13  -3  49 S5        30.46F WCI   5
BROKEN BOW     SUNNY     13  -1  54 S8        30.41F WCI   2
BROWNLEE         N/A     10  -2  58 S13         N/A  WCI  -6
SPRINGVIEW       N/A     14   1  56 SW3G12      N/A
BREWSTER         N/A     21   4  48 S10         N/A  WCI  10
ROSE             N/A     20   8  57 S5          N/A  WCI  14
NEWPORT          N/A     20   6  55 S9          N/A  WCI  10
SARGENT          N/A     14   1  57 SW6         N/A  WCI   5
COMSTOCK         N/A     18   1  49 S6          N/A  WCI   9
CHAMBERS         N/A     17   1  49 S9          N/A  WCI   6
EWING            N/A     13   5  69 SW7         N/A  WCI   3
$$

...OBSERVATIONS IN SOUTHWEST NEBRASKA AND FAR NORTHEAST COLORADO...

CITY           SKY/WX    TMP DP  RH WIND       PRES   REMARKS
WRAY           LGT SNOW  18  11  74 S13       30.25S WCI   4
IMPERIAL       CLOUDY    16   6  65 SE16      30.29F WCI   1
OGALLALA       CLOUDY    15   6  68 S8        30.29F WCI   3
NORTH PLATTE   PTSUNNY   14  -1  51 S13       30.37F WCI   0
MCCOOK         CLOUDY    18   1  47 SE16      30.41F WCI   3
LEXINGTON      MOSUNNY   15   0  52 S10       30.44S WCI   2
PAXTON           N/A     15   6  67 S14         N/A  WCI   0
BRADY            N/A     14   1  56 N3          N/A
GOTHENBURG       N/A     13  -2  51 S8          N/A  WCI   2
CALLAWAY         N/A     13   3  64 S13         N/A  WCI  -1
$$

...NORTH PLATTE AREA...

CITY           SKY/WX    TMP DP  RH WIND       PRES   REMARKS
AIRPORT        PTSUNNY   14  -1  51 S13       30.37F WCI   0
DOWNTOWN         N/A     13   0  55 S9          N/A  WCI   1
$$

...SOME WEATHER OBSERVATIONS FROM AROUND THE REGION...

CITY           SKY/WX    TMP DP  RH WIND       PRES   REMARKS
DENVER         MOSUNNY   12   3  67 S12       29.99F WCI  -2
LARAMIE        SUNNY      8   1  73 S14       29.79F WCI  -8
CHEYENNE       LGT SNOW   6   1  80 S16       29.93S WCI -12
SCOTTSBLUFF    CLOUDY    15   6  67 SE15G23   30.14F WCI   0
RAPID CITY     SUNNY     13   4  67 S23G29    30.16F WCI  -6
PIERRE         SUNNY     16   2  54 S12       30.39F WCI   3
WINNER         FAIR      15   0  51 S12       30.41F WCI   2
SIOUX FALLS    SUNNY      7  -5  57 W7        30.53F WCI  -5
OMAHA          MOSUNNY   10   0  63 NE6       30.63F WCI   0
GRAND ISLAND   SUNNY     14  -2  49 VRB3      30.53S
KANSAS CITY    CLOUDY    10  -1  61 NE6       30.64S WCI   0
WICHITA        LGT SNOW  13   3  64 NE8       30.59S WCI   2
HAYS           CLOUDY    16  -6  38 SE12      30.49F WCI   3
LIBERAL        CLOUDY    12   5  73 SE12      30.38F WCI  -2
GOODLAND       LGT SNOW  15   8  73 S18       30.27F WCI  -2
$$



USA.gov is the U.S. government's official web portal to all federal, state and local government web resources and services.